Location: Absher
(46.5583°N, 107.9840°W)
Time: 18:43:53
(UTC+00:00)

TIGRISAT - Pass Details

Date: 08 April 2023
Orbit: 599 x 682 km, 97.7° (Epoch: 31 May)

Event Time Altitude Azimuth Distance (km) Brightness Sun altitude
Rises 10:47:58 0° 128° (SE) 2,972 ? -18.3°
Reaches altitude 10° 10:50:34 10° 113° (ESE) 2,079 ? -18.0°
Maximum altitude 10:54:01 22° 63° (ENE) 1,466 ? -17.5°
Drops below altitude 10° 10:57:32 10° 14° (NNE) 2,121 ? -16.9°
Sets 11:00:12 0° 359° (N) 3,049 ? -16.5°
